Location: Brede
(50.9167°N, 0.6000°E)
Time: 21:29:26
(UTC+00:00)

Altair - Pass Details

Date: 04 August 2021
Orbit: 1501 x 1682 km, 47.2° (Epoch: 22 September)

Event Time Altitude Azimuth Distance (km) Brightness Sun altitude
Exits shadow 02:45:41 10° 250° (WSW) 3,721 9.0 -13.2°
Maximum altitude 02:54:56 69° 170° (S) 1,610 7.5 -12.3°
Drops below altitude 10° 03:04:00 10° 90° (E) 3,655 10.1 -11.3°
Sets 03:07:01 0° 88° (E) 4,636 10.8 -11.0°
